{"data":{"norad_id":64607,"epoch":"2026-05-24T23:44:20.954688Z","epoch_age_seconds":72572,"freshness":"FRESH","line1":"1 64607U 25137P   26144.98913142  .00014272  00000+0  49288-3 0  9994","line2":"2 64607  53.1596 350.9863 0000739  43.4519 316.6539 15.30211092 52276","mean_motion":15.30211092,"eccentricity":7.39e-5,"inclination_deg":53.1596,"raan_deg":350.9863,"arg_perigee_deg":43.4519,"mean_anomaly_deg":316.6539,"bstar":0.00049288,"rev_number":5227,"period_min":94.104663567554,"perigee_km":474.67549063625,"apogee_km":475.6884111772,"semimajor_km":6853.3189509067,"source":"CELESTRAK","updated_at":"2026-05-25T13:38:20.495579Z"}}